Date,TemperatureHighF,TemperatureAvgF,TemperatureLowF,DewpointHighF,DewpointAvgF,DewpointLowF,HumidityHigh,HumidityAvg,HumidityLow,PressureMaxIn,PressureMinIn,WindSpeedMaxMPH,WindSpeedAvgMPH,GustSpeedMaxMPH,PrecipitationSumIn
2013-1-1,36.0,29.9,23.0,30.0,21.5,10.0,93,72,49,29.02,28.93,7,2,11,0.00
2013-1-2,37.0,19.7,10.0,14.0,5.5,1.0,78,55,33,29.15,28.98,4,1,9,0.00
2013-1-3,40.0,20.8,5.0,16.0,6.6,-5.0,73,55,31,29.15,29.03,0,0,0,0.00
2013-1-4,38.0,29.7,24.0,17.0,13.2,10.0,63,50,34,29.18,29.10,0,0,0,0.00
2013-1-5,29.0,21.4,15.0,19.0,11.7,8.0,78,66,55,29.27,29.18,0,0,0,0.00
2013-1-8,39.0,29.5,25.0,21.0,20.2,19.0,81,69,49,29.25,29.18,0,0,2,0.08
2013-1-9,52.0,37.0,23.0,38.0,26.5,19.0,87,67,41,29.41,29.11,6,2,11,0.04
2013-1-10,45.0,36.8,26.0,32.0,22.9,21.0,89,59,40,29.52,29.19,4,1,8,0.04
2013-1-11,60.0,47.1,39.0,52.0,38.6,21.0,98,74,48,29.19,28.87,6,2,13,0.37
2013-1-12,64.0,56.7,44.0,58.0,52.9,43.0,98,88,66,29.06,28.90,5,2,11,0.04
2013-1-13,67.0,61.7,44.0,58.0,54.1,42.0,97,77,57,28.97,28.82,9,3,16,0.08
2013-1-14,43.0,34.4,27.0,41.0,23.2,16.0,95,64,49,29.31,29.00,10,4,18,0.12
2013-1-15,36.0,29.7,22.0,20.0,17.1,15.0,83,60,43,29.30,28.99,5,2,6,0.00
2013-1-16,37.0,32.8,30.0,30.0,22.9,17.0,88,68,51,29.02,28.84,6,2,10,0.00
2013-1-17,38.0,34.2,30.0,27.0,22.9,11.0,77,63,48,29.17,28.96,8,2,13,0.00
2013-1-18,37.0,28.1,17.0,14.0,9.0,2.0,56,44,32,29.39,29.14,8,4,15,0.00
2013-1-19,56.0,43.6,33.0,21.0,16.7,14.0,46,35,22,29.14,28.78,9,5,24,0.00
2013-1-20,47.0,33.9,24.0,27.0,11.9,5.0,48,40,32,29.11,28.76,11,6,24,0.00
2013-1-21,29.0,20.6,10.0,14.0,6.2,-4.0,67,54,39,29.08,28.88,8,4,15,0.00
2013-1-22,20.0,10.4,6.0,0.0,-6.2,-15.0,59,47,35,29.15,29.01,7,4,13,0.00
2013-1-23,21.0,11.5,2.0,7.0,-10.7,-68.0,66,38,1,29.18,28.99,4,2,11,0.00
2013-1-24,30.0,18.1,12.0,8.0,2.2,-6.0,75,52,30,29.42,28.93,10,3,13,0.00
2013-1-25,26.0,17.8,13.0,13.0,4.0,-5.0,74,55,44,29.40,28.93,5,2,9,0.00
2013-1-26,37.0,24.4,17.0,20.0,12.7,7.0,79,62,40,29.32,29.00,8,2,10,0.00
2013-1-27,40.0,24.3,8.0,16.0,10.0,1.0,77,57,33,29.41,29.21,4,1,7,0.00
2013-1-28,49.0,41.1,31.0,48.0,39.0,16.0,98,93,51,29.22,28.95,6,3,12,0.46
2013-1-29,66.0,56.9,48.0,56.0,50.5,47.0,98,82,59,29.03,28.75,7,4,15,0.08
2013-1-30,67.0,58.6,38.0,58.0,50.5,34.0,95,76,54,28.75,28.24,12,6,23,0.50
2013-1-31,38.0,26.2,21.0,34.0,14.4,7.0,87,62,43,28.80,28.35,11,5,26,0.21
2013-2-1,24.0,16.2,13.0,9.0,1.4,-2.0,62,52,39,29.21,28.79,12,5,18,0.00
2013-2-2,28.0,20.2,10.0,20.0,10.5,-4.0,85,66,52,29.19,28.87,6,3,11,0.00
2013-2-3,32.0,22.8,17.0,21.0,13.0,6.0,88,67,42,28.97,28.79,7,2,13,0.00
2013-2-4,29.0,22.2,14.0,23.0,15.1,6.0,88,74,57,29.00,28.79,4,2,8,0.00
2013-2-5,37.0,28.7,25.0,28.0,22.4,15.0,94,78,52,28.90,28.77,4,1,9,0.00
2013-2-6,47.0,29.9,16.0,26.0,16.9,7.0,89,62,28,29.23,28.90,6,2,13,0.04
2013-2-7,54.0,31.7,14.0,26.0,18.1,7.0,81,60,28,29.21,28.85,4,2,7,0.17
2013-2-8,42.0,33.2,26.0,38.0,26.4,15.0,96,76,63,29.16,28.71,11,6,26,0.17
2013-2-9,42.0,28.2,19.0,19.0,14.3,10.0,76,57,33,29.34,29.16,6,2,13,0.04
2013-2-10,51.0,35.0,15.0,30.0,16.8,10.0,83,53,27,29.24,28.85,7,2,15,0.00
2013-2-11,59.0,46.2,36.0,45.0,32.2,20.0,98,61,30,28.93,28.70,11,6,20,0.00
2013-2-12,47.0,36.0,26.0,22.0,19.5,17.0,72,52,35,29.06,28.87,9,3,17,0.00
2013-2-13,37.0,29.4,23.0,27.0,21.7,18.0,85,74,59,28.87,28.66,5,1,9,0.00
2013-2-14,39.0,33.5,24.0,37.0,29.9,20.0,98,87,68,28.88,28.79,8,3,17,0.04
2013-2-15,42.0,33.3,26.0,30.0,24.1,17.0,89,70,41,29.05,28.87,7,2,15,0.04
2013-2-16,36.0,26.7,19.0,20.0,11.8,4.0,82,55,30,29.03,28.89,6,3,11,0.00
2013-2-17,28.0,19.5,12.0,14.0,6.1,1.0,77,57,34,29.14,28.91,10,4,15,0.00
2013-2-18,48.0,31.5,10.0,25.0,11.7,-1.0,73,45,29,29.15,28.77,8,3,14,0.00
2013-2-19,49.0,35.3,21.0,39.0,24.9,8.0,91,67,37,28.92,28.62,11,6,23,0.29
2013-2-20,26.0,20.9,18.0,15.0,8.0,4.0,77,57,42,29.15,28.92,10,4,16,0.04
2013-2-21,31.0,23.6,20.0,16.0,10.2,8.0,80,57,42,29.23,29.12,7,4,10,0.00
2013-2-22,42.0,32.6,23.0,38.0,24.4,10.0,95,72,55,29.18,28.87,5,2,9,0.00
2013-2-23,46.0,37.3,27.0,33.0,26.2,18.0,88,66,39,28.94,28.82,5,2,11,0.00
2013-2-24,36.0,30.6,26.0,24.0,17.9,14.0,81,60,42,29.08,28.84,5,2,13,0.00
2013-2-25,50.0,35.6,22.0,25.0,17.8,15.0,81,52,27,29.17,28.97,6,1,9,0.00
2013-2-26,41.0,35.8,30.0,38.0,26.5,15.0,96,71,42,29.00,28.51,0,0,0,0.79
2013-2-27,42.0,38.8,34.0,40.0,35.0,28.0,98,87,70,28.65,28.48,0,0,0,0.37
2013-2-28,38.0,34.3,32.0,33.0,29.0,26.0,95,81,75,28.82,28.56,0,0,0,0.08
2013-3-1,34.0,30.3,27.0,28.0,20.6,13.0,86,67,49,28.96,28.82,0,0,0,0.00
2013-3-2,32.0,27.8,25.0,22.0,18.1,12.0,82,67,45,28.96,28.89,0,0,0,0.00
2013-3-3,32.0,26.3,23.0,21.0,13.4,7.0,82,59,40,28.98,28.89,0,0,0,0.04
2013-3-4,45.0,30.4,18.0,15.0,11.4,8.0,69,47,28,29.08,28.95,0,0,0,0.04
2013-3-5,50.0,33.1,20.0,17.0,14.0,11.0,78,49,24,29.03,28.69,0,0,0,0.00
2013-3-9,61.0,51.3,37.0,27.0,22.8,20.0,66,34,24,29.33,29.11,5,2,6,0.00
2013-3-10,74.0,58.3,45.0,31.0,25.8,22.0,50,30,18,29.12,28.92,7,2,10,0.00
2013-3-11,62.0,56.1,46.0,49.0,33.5,24.0,94,48,25,28.94,28.65,9,4,9,0.54
2013-3-12,45.0,38.9,36.0,38.0,27.2,21.0,77,63,49,28.97,28.79,5,4,5,0.50
2013-3-13,34.0,31.4,29.0,29.0,27.6,26.0,93,86,74,28.94,28.88,4,4,4,0.00
2013-4-9,75.0,70.8,68.0,46.0,43.9,41.0,44,38,31,29.00,28.97,2,-55,6,0.00
2013-4-10,82.0,68.0,59.0,66.0,54.8,46.0,98,66,38,29.00,28.85,10,-40,17,2.08
2013-4-11,68.0,60.1,56.0,62.0,56.6,52.0,98,89,70,28.95,28.58,5,1,10,1.91
2013-4-12,60.0,53.2,43.0,59.0,46.1,30.0,98,79,54,28.84,28.49,8,3,15,0.46
2013-4-13,50.0,46.0,35.0,32.0,29.4,27.0,72,53,42,29.00,28.90,8,4,11,0.00
2013-4-14,69.0,49.4,29.0,36.0,29.1,26.0,95,54,23,29.11,28.96,4,1,8,0.00
2013-4-15,71.0,61.5,49.0,46.0,39.6,30.0,59,45,34,29.05,28.95,8,3,17,0.00
2013-4-16,83.0,64.9,55.0,58.0,51.4,45.0,98,65,35,29.20,29.02,10,4,21,0.21
2013-4-17,72.0,59.0,51.0,53.0,50.1,44.0,98,77,38,29.24,29.08,5,2,7,0.21
2013-4-18,88.0,72.6,57.0,59.0,50.7,41.0,97,54,20,29.08,28.77,10,4,19,0.00
2013-4-19,75.0,62.2,41.0,59.0,43.8,23.0,84,53,34,28.87,28.51,12,6,31,0.13
2013-4-20,49.0,41.8,35.0,29.0,21.3,16.0,69,45,29,29.33,28.87,8,4,18,0.04
2013-4-21,60.0,42.9,26.0,31.0,18.8,13.0,84,43,20,29.54,29.35,7,2,12,0.00
2013-4-22,73.0,53.4,32.0,32.0,24.4,16.0,72,36,19,29.39,29.20,5,2,12,0.00
2013-4-23,78.0,60.4,41.0,32.0,26.4,16.0,52,29,18,29.22,28.94,7,2,13,0.00
2013-4-24,63.0,52.6,36.0,56.0,42.6,31.0,94,72,31,29.17,28.75,12,3,19,0.70
2013-4-25,61.0,44.5,30.0,41.0,30.9,22.0,98,66,25,29.31,29.14,7,2,17,0.04
2013-4-26,68.0,49.9,33.0,43.0,27.9,16.0,96,54,17,29.44,29.31,4,1,7,0.04
2013-4-27,78.0,57.4,34.0,40.0,28.1,20.0,84,41,15,29.35,29.13,5,1,10,0.00
2013-4-28,62.0,54.3,48.0,57.0,46.6,-99.9,98,80,52,29.14,28.92,3,1,8,0.75
2013-4-29,67.0,59.8,55.0,57.0,53.9,51.0,98,82,58,29.02,28.89,4,2,7,0.46
2013-4-30,84.0,65.0,48.0,59.0,47.1,39.0,98,61,23,29.15,29.01,5,1,9,0.04
2013-5-1,87.0,69.9,53.0,51.0,44.5,38.0,81,45,20,29.29,29.15,5,2,10,0.00
2013-5-2,86.0,69.0,51.0,39.0,34.4,27.0,51,30,18,29.33,29.20,5,2,11,0.00
2013-5-3,84.0,69.1,51.0,38.0,30.6,26.0,48,26,14,29.24,29.11,6,2,15,0.00
2013-5-4,78.0,65.0,52.0,38.0,30.4,23.0,45,29,15,29.18,29.05,7,3,11,0.00
2013-5-5,81.0,66.1,52.0,35.0,28.8,18.0,48,27,14,29.12,28.99,7,3,13,0.00
2013-5-6,82.0,66.3,55.0,46.0,36.9,18.0,54,35,19,29.06,28.99,7,3,13,0.00
2013-5-7,71.0,63.3,57.0,54.0,50.4,46.0,84,64,44,29.06,28.99,6,2,12,0.00
2013-5-8,84.0,66.6,58.0,54.0,46.5,37.0,84,53,21,29.03,28.93,5,2,10,0.00
2013-5-9,88.0,69.1,55.0,57.0,48.4,33.0,97,58,16,29.04,28.94,7,1,12,0.04
2013-5-10,78.0,64.3,59.0,61.0,55.0,-99.9,97,77,44,29.01,28.84,5,2,14,0.37
2013-5-11,62.0,56.0,50.0,61.0,48.5,39.0,96,77,54,28.88,28.81,6,3,18,0.17
2013-5-12,57.0,47.5,36.0,39.0,25.1,-99.9,82,46,26,29.08,28.88,9,4,17,0.04
2013-5-13,60.0,45.8,30.0,31.0,21.0,15.0,83,41,22,29.17,29.04,8,3,17,0.00
2013-5-14,73.0,51.5,33.0,34.0,28.3,21.0,74,45,21,29.14,28.87,4,1,10,0.00
2013-5-15,90.0,71.0,55.0,55.0,45.1,34.0,69,42,21,28.87,28.77,8,2,13,0.00
2013-5-16,88.0,64.2,59.0,62.0,28.6,-99.9,97,52,15,29.04,28.86,4,1,9,0.33
2013-5-17,90.0,67.4,55.0,61.0,44.9,-99.9,93,61,19,29.15,29.00,4,1,7,0.25
2013-5-18,87.0,69.9,52.0,57.0,46.4,38.0,72,46,23,29.15,29.06,3,1,7,0.00
2013-5-19,89.0,72.0,60.0,64.0,57.2,53.0,95,63,30,29.13,29.00,0,0,0,0.00
2013-5-20,90.0,75.0,64.0,65.0,62.0,59.0,92,67,38,29.08,28.95,5,1,10,0.00
2013-5-21,92.0,77.7,67.0,69.0,60.5,52.0,97,61,27,29.02,28.87,6,2,12,0.00
2013-5-22,91.0,77.2,65.0,61.0,54.9,47.0,80,50,24,28.93,28.80,6,2,13,0.00
2013-5-23,81.0,66.4,46.0,62.0,53.9,39.0,88,67,29,29.02,28.82,10,3,20,0.08
2013-5-24,54.0,46.4,37.0,40.0,30.2,25.0,84,55,32,29.27,29.01,9,5,18,0.04
2013-5-25,69.0,50.6,32.0,39.0,28.0,22.0,91,49,20,29.31,29.22,7,2,14,0.00
2013-5-26,76.0,56.0,34.0,38.0,27.8,21.0,87,41,15,29.30,29.21,5,2,11,0.00
2013-5-27,68.0,55.0,42.0,45.0,37.0,28.0,70,52,33,29.27,29.07,3,0,5,0.00
2013-5-28,89.0,69.8,55.0,67.0,54.7,46.0,93,64,30,29.08,28.97,6,2,13,0.29
2013-5-29,93.0,79.4,68.0,55.0,51.3,43.0,62,40,20,29.17,29.04,6,2,15,0.13
2013-5-30,96.0,79.3,63.0,62.0,54.1,45.0,85,47,19,29.23,29.11,4,1,12,0.00
2013-5-31,94.0,77.1,61.0,66.0,56.5,46.0,94,56,20,29.17,29.02,7,2,15,0.04
2013-6-1,89.0,76.9,65.0,68.0,60.3,56.0,94,61,34,29.05,28.84,7,2,17,0.37
2013-6-2,83.0,73.3,67.0,67.0,56.1,-99.9,98,62,31,28.95,28.81,6,3,14,1.41
2013-6-3,75.0,63.9,49.0,55.0,44.2,30.0,75,51,25,29.10,28.92,5,3,9,0.50
2013-6-4,83.0,62.5,41.0,46.0,36.8,31.0,89,45,19,29.18,29.10,5,1,9,0.00
2013-6-5,89.0,69.2,50.0,53.0,41.4,36.0,78,42,18,29.18,28.97,5,1,9,0.00
2013-6-6,72.0,65.4,58.0,67.0,62.0,47.0,98,90,48,28.98,28.82,7,2,10,0.87
2013-6-7,65.0,60.3,57.0,57.0,55.2,52.0,98,85,67,28.90,28.81,6,2,9,0.04
2013-6-8,82.0,65.8,57.0,56.0,49.9,43.0,90,62,26,29.12,28.90,4,1,7,0.00
2013-6-9,88.0,70.7,58.0,64.0,55.0,50.0,84,62,29,29.18,29.04,4,1,10,0.00
2013-6-10,79.0,69.8,62.0,69.0,63.1,56.0,98,81,47,29.05,28.83,4,1,11,1.00
2013-6-11,85.0,70.9,62.0,66.0,60.1,52.0,98,74,33,28.95,28.85,7,2,13,0.25
2013-6-12,87.0,74.0,63.0,68.0,62.1,57.0,93,69,40,28.99,28.81,3,1,7,0.04
2013-6-13,77.0,67.9,62.0,67.0,59.2,44.0,97,76,32,28.88,28.61,8,3,21,0.41
2013-6-14,80.0,62.4,55.0,57.0,51.4,45.0,93,70,32,29.11,28.87,6,2,10,0.12
2013-6-15,82.0,56.3,49.0,56.0,49.9,39.0,95,81,22,29.15,29.05,3,0,4,0.00
2013-6-16,81.0,69.0,63.0,67.0,61.0,55.0,98,77,47,29.08,28.95,4,1,13,0.50
2013-6-17,93.0,69.7,64.0,73.0,63.7,48.0,98,87,22,29.05,28.95,4,0,15,0.75
2013-6-18,87.0,70.6,63.0,66.0,59.7,47.0,98,74,32,29.04,28.91,5,1,10,0.37
2013-6-19,84.0,63.9,52.0,48.0,44.1,35.0,80,54,19,29.18,29.03,6,2,10,0.00
2013-6-20,89.0,61.4,51.0,55.0,47.8,38.0,94,68,18,29.26,29.18,4,1,6,0.00
2013-6-23,76.0,70.6,67.0,69.0,63.9,59.0,94,80,56,29.20,29.14,3,0,6,0.00
2013-6-24,76.0,67.9,65.0,65.0,60.0,58.0,89,76,58,29.18,29.09,0,0,4,0.00
2013-6-25,93.0,73.5,68.0,68.0,63.5,60.0,98,72,36,29.12,28.93,4,1,14,1.50
2013-6-26,89.0,73.0,67.0,74.0,67.0,63.0,98,84,46,29.03,28.87,6,1,11,2.53
2013-6-27,81.0,71.7,67.0,71.0,66.9,61.0,98,86,55,28.87,28.71,4,0,7,0.62
2013-6-28,86.0,70.5,65.0,69.0,64.0,57.0,98,82,37,28.72,28.60,4,1,9,0.45
2013-6-29,80.0,68.5,61.0,64.0,60.4,55.0,95,77,44,28.74,28.62,4,0,11,0.25
2013-6-30,87.0,67.9,62.0,68.0,63.3,58.0,98,88,38,28.92,28.73,3,0,7,0.17
2013-7-1,83.0,69.1,65.0,69.0,63.9,58.0,92,84,44,29.02,28.89,4,1,9,0.54
2013-7-2,81.0,70.1,66.0,68.0,64.7,59.0,98,85,47,29.11,28.98,3,0,5,0.33
2013-7-3,82.0,71.2,69.0,70.0,66.3,64.0,91,85,54,29.23,29.11,2,0,6,0.17
2013-7-4,84.0,74.2,69.0,71.0,65.8,61.0,98,77,47,29.26,29.19,4,1,9,0.17
2013-7-5,84.0,73.2,68.0,69.0,67.2,63.0,98,83,52,29.23,29.16,4,1,11,0.17
2013-7-6,90.0,72.4,69.0,72.0,68.5,63.0,98,90,41,29.23,29.11,2,0,8,0.04
2013-7-7,83.0,72.4,68.0,65.0,62.0,57.0,86,71,42,29.18,29.10,3,1,8,0.00
2013-7-8,84.0,67.7,63.0,66.0,58.0,-99.9,91,76,50,29.19,29.10,3,1,7,0.13
2013-7-9,88.0,72.2,69.0,72.0,69.1,66.0,98,91,48,29.17,29.01,4,1,11,0.95
2013-7-10,92.0,72.4,66.0,76.0,65.8,-99.9,98,87,49,29.08,28.87,4,1,11,1.04
2013-7-11,80.0,67.3,62.0,67.0,62.3,48.0,98,87,40,29.07,28.99,5,1,7,0.62
2013-7-12,78.0,64.3,58.0,60.0,56.0,53.0,96,77,45,29.16,29.07,5,1,10,0.00
2013-7-13,77.0,67.6,62.0,63.0,60.2,58.0,92,78,55,29.28,29.15,3,0,8,0.00
2013-7-14,81.0,70.8,67.0,71.0,64.6,62.0,94,82,56,29.35,29.26,1,0,4,0.00
2013-7-15,83.0,72.9,69.0,73.0,67.9,65.0,97,85,58,29.38,29.32,0,0,0,0.00
2013-7-16,86.0,77.5,71.0,73.0,68.8,67.0,92,76,54,29.38,29.31,3,0,6,0.00
2013-7-17,85.0,74.9,72.0,74.0,71.0,67.0,97,89,61,29.38,29.27,1,0,3,0.00
2013-7-18,83.0,75.4,73.0,74.0,70.1,67.0,93,84,60,29.29,29.12,0,0,0,0.00
2013-7-19,83.0,76.2,73.0,74.0,68.2,65.0,93,77,57,29.13,28.97,3,0,8,0.08
2013-7-20,84.0,73.8,71.0,71.0,64.0,-99.9,91,75,46,29.03,28.92,4,1,8,0.20
2013-7-21,80.0,72.5,70.0,69.0,66.6,61.0,91,82,55,29.02,28.98,1,0,4,0.08
2013-7-22,78.0,70.8,68.0,72.0,66.8,64.0,98,87,71,29.03,28.83,3,0,8,1.04
2013-7-23,85.0,67.8,65.0,69.0,65.4,62.0,98,93,47,28.89,28.77,3,1,8,0.79
2013-7-24,74.0,65.8,59.0,66.0,57.8,47.0,98,78,41,29.03,28.84,6,1,10,0.79
2013-7-25,67.0,55.8,51.0,57.0,49.5,48.0,95,80,50,29.12,29.02,3,0,6,0.00
2013-7-26,67.0,56.2,53.0,57.0,51.3,50.0,93,84,64,29.13,29.05,0,0,2,0.00
2013-7-27,75.0,68.5,64.0,63.0,59.9,54.0,87,75,61,29.08,28.88,5,1,10,0.08
2013-7-28,70.0,61.7,57.0,63.0,57.0,46.0,97,86,42,29.06,28.88,3,0,6,0.04
2013-7-29,62.0,57.6,54.0,56.0,49.2,47.0,90,74,63,29.24,29.05,1,0,2,0.00
2013-7-30,70.0,56.7,52.0,58.0,52.3,49.0,93,85,61,29.26,29.21,0,0,0,0.00
2013-7-31,80.0,66.5,60.0,64.0,58.3,55.0,88,76,46,29.22,29.00,2,0,4,0.00
2013-8-1,77.0,67.2,66.0,67.0,63.1,55.0,98,87,55,29.01,28.92,3,1,7,0.08
2013-8-2,75.0,64.1,57.0,62.0,56.4,52.0,95,78,44,29.04,28.97,4,1,10,0.04
2013-8-3,74.0,67.2,61.0,66.0,60.5,49.0,95,80,59,29.06,28.99,3,1,9,0.41
2013-8-4,68.0,59.3,56.0,59.0,53.2,48.0,93,81,60,29.15,29.06,4,0,8,0.04
2013-8-5,67.0,57.1,52.0,57.0,51.0,49.0,92,80,58,29.15,29.06,0,0,0,0.00
2013-8-6,66.0,59.6,57.0,61.0,54.4,53.0,91,83,67,29.07,29.01,0,0,0,0.00
2013-8-7,82.0,69.6,62.0,71.0,61.6,55.0,90,77,46,29.05,28.95,7,0,10,0.54
2013-8-8,86.0,74.3,69.0,72.0,68.8,65.0,98,85,50,29.05,28.96,4,0,7,0.71
2013-8-9,75.0,69.6,65.0,70.0,66.8,55.0,98,92,63,29.06,28.96,4,1,7,0.91
2013-8-10,77.0,66.1,62.0,63.0,59.3,57.0,93,80,52,29.17,29.06,3,0,6,0.08
2013-8-11,76.0,66.1,62.0,62.0,57.9,52.0,83,76,43,29.19,29.10,2,0,3,0.08
2013-8-12,74.0,63.9,60.0,65.0,60.1,58.0,95,88,65,29.14,28.93,1,0,4,0.04
2013-8-13,75.0,67.8,57.0,66.0,58.7,-99.9,91,78,52,29.03,28.87,4,1,10,0.00
2013-8-14,68.0,53.1,50.0,52.0,39.9,-99.9,91,71,42,29.17,29.02,5,1,10,0.00
2013-8-15,62.0,43.4,47.0,51.0,23.7,-99.9,93,71,21,29.19,29.14,3,0,5,0.00
2013-8-16,59.0,50.4,53.0,54.0,37.9,-99.9,88,77,22,29.21,29.15,3,0,6,0.00
2013-8-17,71.0,58.6,55.0,56.0,50.6,47.0,86,75,50,29.25,29.21,1,0,3,0.00
2013-8-18,78.0,66.2,59.0,61.0,53.8,-99.9,83,68,48,29.25,29.18,0,0,0,0.00
2013-8-19,85.0,62.1,64.0,63.0,44.2,-99.9,91,74,20,29.19,29.15,0,-83,0,0.00
2013-8-20,69.0,61.3,58.0,63.0,56.8,55.0,95,86,65,29.23,29.15,0,-999,0,0.00
2013-8-21,74.0,64.3,60.0,65.0,59.3,57.0,94,84,62,29.26,29.13,0,-999,0,0.00
2013-8-22,83.0,71.1,64.0,67.0,62.3,59.0,89,75,46,29.18,29.04,0,-999,0,0.00
2013-8-23,79.0,70.3,64.0,70.0,66.5,49.0,98,88,58,29.22,29.05,0,-999,0,0.17
2013-8-24,67.0,59.1,55.0,57.0,52.0,49.0,89,78,54,29.33,29.22,0,-999,0,0.04
2013-8-25,66.0,57.8,54.0,59.0,52.0,50.0,89,81,66,29.38,29.30,0,-999,0,0.00
2013-8-26,78.0,66.2,60.0,63.0,58.0,55.0,88,76,55,29.31,29.10,0,-999,0,0.00
2013-8-27,80.0,73.0,70.0,70.0,65.3,61.0,90,77,62,29.13,29.05,0,-999,0,0.08
2013-8-28,86.0,78.3,73.0,67.0,65.5,64.0,78,66,50,29.03,28.93,0,-999,0,0.00
2013-8-29,82.0,72.2,69.0,69.0,65.7,60.0,92,81,51,29.11,29.02,0,-999,0,0.00
2013-8-30,76.0,67.0,63.0,69.0,63.1,62.0,98,88,64,29.11,28.90,0,-999,0,0.00
2013-8-31,78.0,72.9,71.0,68.0,65.9,61.0,89,79,56,28.94,28.79,0,-999,0,0.00
2013-9-1,82.0,73.2,70.0,70.0,66.4,61.0,93,80,50,28.91,28.87,0,-999,0,0.00
2013-9-2,78.0,69.9,63.0,70.0,64.1,58.0,97,82,65,28.92,28.83,0,-999,0,0.21
2013-9-3,68.0,62.1,56.0,61.0,54.6,47.0,94,78,51,29.08,28.92,0,-999,0,0.21
2013-9-4,64.0,54.7,52.0,54.0,51.4,50.0,98,89,68,29.15,29.08,0,-999,0,0.00
2013-9-5,73.0,60.7,58.0,61.0,55.5,53.0,91,84,49,29.18,29.13,4,-354,4,0.00
2013-9-6,55.0,48.5,45.0,48.0,42.9,41.0,88,81,66,29.26,29.14,2,0,3,0.00
2013-9-7,55.0,51.0,48.0,49.0,44.9,44.0,86,80,67,29.15,29.02,0,0,3,0.00
2013-9-8,78.0,66.2,63.0,62.0,53.5,-99.9,86,69,52,29.04,28.97,3,-181,4,0.00
2013-9-9,76.0,60.6,56.0,63.0,52.8,48.0,83,76,63,29.13,29.07,0,0,1,0.00
2013-9-10,84.0,75.3,70.0,69.0,65.5,62.0,81,72,50,29.21,29.11,3,0,5,0.00
2013-9-11,80.0,75.9,73.0,71.0,68.6,67.0,87,78,65,29.23,29.18,3,0,3,0.00
2013-9-12,75.0,70.5,63.0,69.0,63.6,56.0,92,79,65,29.09,28.88,4,-134,8,0.42
2013-9-13,65.0,58.0,53.0,58.0,50.1,42.0,98,76,52,29.08,28.88,6,3,13,0.17
2013-9-14,52.0,49.3,45.0,47.0,43.1,40.0,90,80,64,29.16,29.07,3,2,3,0.04
2013-9-15,62.0,46.8,43.0,51.0,38.1,-99.9,90,78,61,29.18,29.08,2,0,4,0.00
2013-9-16,66.0,58.9,52.0,58.0,52.9,42.0,92,81,57,29.33,29.11,2,0,5,0.04
2013-9-17,56.0,48.5,42.0,46.0,42.6,39.0,93,81,61,29.36,29.22,3,0,6,0.04
2013-9-18,64.0,49.1,47.0,49.0,44.5,43.0,88,84,76,29.25,29.15,2,0,4,0.00
2013-9-19,72.0,66.5,63.0,61.0,58.3,56.0,83,75,58,29.16,29.06,2,1,6,0.00
2013-9-20,80.0,69.8,66.0,66.0,63.8,60.0,90,82,51,29.07,28.86,3,1,5,0.00
2013-9-21,73.0,66.0,55.0,66.0,60.7,48.0,95,84,65,28.87,28.74,4,1,8,0.67
2013-9-22,58.0,50.9,48.0,53.0,44.5,-99.9,98,85,61,29.04,28.83,3,0,6,0.33
2013-9-23,58.0,52.6,51.0,47.0,44.3,40.0,81,73,51,29.13,29.04,3,0,4,0.04
2013-9-24,53.0,50.6,48.0,42.0,41.4,40.0,76,70,65,28.97,28.96,0,0,2,0.00
2013-9-25,62.0,48.0,44.0,52.0,43.5,39.0,94,85,67,28.97,28.90,3,0,5,0.00
2013-9-27,56.0,48.7,46.0,49.0,42.2,39.0,92,79,61,29.20,29.08,3,0,4,0.00
2013-9-28,65.0,50.9,46.0,48.0,44.8,42.0,91,80,52,29.23,29.14,2,0,2,0.00
2013-9-29,71.0,56.6,53.0,55.0,47.3,-99.9,86,76,43,29.18,29.05,3,0,6,0.00
2013-9-30,68.0,63.9,59.0,59.0,54.6,50.0,89,73,54,29.09,29.00,3,0,8,0.00
2013-10-1,64.0,60.9,58.0,55.0,53.2,52.0,89,76,66,29.08,29.02,0,0,0,0.00
2013-10-2,76.0,60.1,56.0,62.0,55.4,53.0,98,86,51,29.13,29.06,0,0,0,0.00
2013-10-3,78.0,65.8,60.0,66.0,61.6,57.0,98,87,53,29.13,29.06,0,0,1,0.54
2013-10-4,79.0,69.1,63.0,71.0,63.7,59.0,98,85,52,29.14,29.09,4,0,9,0.04
2013-10-5,79.0,69.9,65.0,70.0,65.7,59.0,98,89,53,29.14,29.03,3,0,6,1.41
2013-10-6,87.0,71.2,67.0,73.0,64.3,55.0,98,83,36,29.04,28.79,4,1,9,0.91
2013-10-7,61.0,54.1,49.0,55.0,47.1,38.0,98,79,48,29.12,28.79,5,2,12,0.62
2013-10-8,53.0,46.1,42.0,50.0,40.9,39.0,94,82,65,29.27,29.12,2,0,4,0.04
2013-10-9,53.0,44.0,39.0,47.0,39.3,36.0,91,84,68,29.27,29.22,3,0,5,0.00
2013-10-10,52.0,45.5,41.0,46.0,39.5,37.0,88,80,64,29.22,29.09,3,0,4,0.00
2013-10-11,74.0,51.5,45.0,50.0,43.9,40.0,90,78,33,29.10,29.04,4,1,6,0.00
2013-10-12,69.0,57.7,51.0,57.0,51.1,48.0,91,80,50,29.15,29.08,2,0,4,0.00
2013-10-13,73.0,62.7,60.0,58.0,53.6,-99.9,90,75,46,29.29,29.15,5,1,9,0.08
2013-10-14,60.0,58.3,57.0,57.0,49.7,41.0,89,74,52,29.30,29.24,3,1,7,0.08
2013-10-15,71.0,59.0,47.0,57.0,50.5,39.0,85,74,53,29.24,28.96,3,0,6,0.00
2013-10-16,66.0,62.9,54.0,61.0,56.2,45.0,90,79,59,28.99,28.87,4,1,9,0.08
2013-10-17,60.0,50.1,43.0,50.0,44.9,41.0,95,83,55,28.96,28.76,4,1,9,0.29
2013-10-18,57.0,47.0,42.0,44.0,39.8,35.0,90,77,48,29.00,28.91,4,1,9,0.29
2013-10-19,55.0,46.0,42.0,45.0,38.6,35.0,86,76,55,28.95,28.72,6,1,13,0.12
2013-10-20,51.0,40.1,36.0,38.0,31.5,-99.9,88,76,48,28.97,28.89,3,1,9,0.12
2013-10-21,58.0,43.8,40.0,37.0,33.6,31.0,78,68,39,28.99,28.86,4,0,9,0.00
2013-10-22,55.0,43.1,35.0,44.0,35.0,27.0,82,73,54,28.97,28.84,8,2,17,0.17
2013-10-23,44.0,40.1,36.0,36.0,31.3,27.0,82,71,57,28.89,28.74,6,2,10,0.04
2013-10-24,44.0,37.2,34.0,30.0,27.8,22.0,77,69,45,29.09,28.89,4,2,8,0.04
2013-10-25,46.0,35.7,30.0,29.0,26.4,22.0,84,71,44,29.26,29.09,3,2,8,0.00
2013-10-26,46.0,46.0,46.0,25.0,25.0,25.0,43,43,43,28.96,28.92,3,3,10,0.00
2013-10-27,49.0,32.0,29.0,38.0,22.5,-99.9,82,75,47,29.07,28.95,3,0,4,0.00
2013-10-28,48.0,31.1,28.0,41.0,22.9,-99.9,83,77,61,29.25,29.04,2,0,3,0.00
2013-10-29,49.0,38.2,32.0,40.0,31.0,27.0,88,76,57,29.33,29.21,2,0,4,0.00
2013-10-30,59.0,48.0,41.0,51.0,39.6,33.0,82,73,54,29.22,29.08,1,0,4,0.00
2013-11-5,47.0,44.0,41.0,30.0,28.0,26.0,64,54,43,29.36,29.26,0,0,2,0.00
2013-11-6,60.0,48.3,38.0,57.0,38.7,30.0,91,70,39,29.26,28.93,5,1,10,0.13
2013-11-7,59.0,46.3,43.0,57.0,40.1,32.0,92,79,59,29.09,28.93,8,4,18,0.67
2013-11-8,39.0,35.0,28.0,29.0,24.8,20.0,75,66,51,29.21,29.07,5,2,11,0.00
2013-11-9,41.0,30.3,28.0,26.0,18.9,-99.9,77,69,48,29.20,28.94,4,0,6,0.00
2013-11-10,48.0,43.6,31.0,31.0,28.7,21.0,66,56,48,29.23,28.97,4,2,10,0.00
2013-11-11,47.0,34.0,27.0,36.0,26.7,20.0,88,75,47,29.20,29.01,8,2,14,0.08
2013-11-15,53.0,53.0,53.0,14.0,14.0,14.0,21,21,21,29.14,29.14,5,5,8,0.00
2013-11-16,60.0,51.0,37.0,46.0,36.4,-99.9,72,62,47,29.18,28.95,4,2,10,0.00
2013-11-17,61.0,58.7,55.0,57.0,50.9,43.0,90,75,54,28.98,28.52,10,6,21,0.50
2013-11-18,47.0,45.1,43.0,33.0,31.9,31.0,65,60,55,28.79,28.74,7,3,11,0.29
2013-11-20,33.0,26.3,23.0,21.0,16.0,12.0,74,65,43,29.34,29.25,3,0,6,0.00
2013-11-21,47.0,40.9,37.0,28.0,27.4,26.0,67,59,47,29.30,29.28,3,2,4,0.08
2013-12-8,30.0,24.0,14.0,26.0,14.3,4.0,86,67,42,29.47,28.95,4,2,8,0.00
2013-12-9,36.0,34.0,30.0,35.0,28.6,15.0,98,82,53,29.11,28.87,7,2,13,0.08
2013-12-10,25.0,23.0,20.0,17.0,15.3,13.0,76,72,61,29.08,29.01,4,2,9,0.08
2013-12-11,28.0,22.8,17.0,16.0,9.2,4.0,67,56,42,29.29,29.17,7,3,13,0.00
2013-12-12,17.0,15.5,14.0,-1.0,-1.0,-1.0,50,48,45,29.37,29.34,3,3,6,0.00
2013-12-14,37.0,34.1,30.0,36.0,27.7,-99.9,97,82,59,29.05,28.64,3,1,8,0.13
2013-12-15,36.0,29.2,25.0,35.0,21.9,15.0,98,75,56,28.87,28.64,6,4,15,0.21
2013-12-16,26.0,21.1,19.0,18.0,9.1,5.0,73,59,42,29.09,28.95,3,2,8,0.00
2013-12-17,32.0,28.5,25.0,28.0,21.7,16.0,85,76,57,28.99,28.86,4,2,11,0.04
2013-12-18,33.0,27.3,25.0,18.0,16.1,12.0,70,63,50,29.10,28.99,3,3,8,0.04
2013-12-19,39.0,36.4,33.0,25.0,19.8,12.0,59,51,40,29.00,28.95,2,1,4,0.00
2013-12-20,55.0,51.1,40.0,51.0,42.8,21.0,89,74,45,28.93,28.88,7,4,13,0.08
2013-12-21,64.0,57.6,55.0,62.0,52.8,-99.9,96,87,72,28.89,28.61,8,4,17,1.00
2013-12-22,67.0,60.8,48.0,60.0,52.7,35.0,98,76,59,28.98,28.56,10,6,21,1.00
2013-12-23,48.0,42.0,35.0,38.0,33.8,21.0,85,73,56,29.21,28.97,5,3,11,0.08
2013-12-24,26.0,24.4,20.0,17.0,12.9,2.0,68,61,45,29.32,29.18,7,3,11,0.00
2013-12-25,29.0,19.0,14.0,17.0,7.4,4.0,65,60,53,29.34,29.13,4,2,7,0.00
2013-12-26,32.0,30.7,29.0,19.0,18.1,17.0,64,59,55,29.13,29.05,4,3,11,0.00
2013-12-28,-200.0,0.0,200.0,-99.9,-99.9,-99.9,0,0,100,29.04,29.04,1,1,2,0.00
2013-12-29,43.0,41.1,38.0,39.0,33.7,25.0,87,75,59,28.86,28.71,6,2,11,0.25